Home > Weather > Woodstock > Past weeks

Flag for U.S.A. Weather for the Past 2 Weeks in Woodstock, New York, U.S.A.

Now
31 °F

Sunny.


Feels Like: 26 °F
Forecast: 20 / 40 °F
Wind: 5 mph from Southwest

Location: Dutchess County Airport

Current Time: Feb 6, 2016 at 9:36:01 AM

Latest Report: Feb 6, 2016 at 8:53 AM


Visibility: 10 mi

Pressure: 30.40 "Hg

Humidity: 61%

Dew point: 19 °F

Location of WoodstockLocation

Historic Weather in Woodstock — Graph

°F

Woodstock Temperature Yesterday

Maximum temperature yesterday: 42 °F (at 1:53 PM)
Minimum temperature yesterday: 25 °F (at 11:53 PM)
Average temperature yesterday: 37 °F

High & Low Weather Summary for the Past Weeks

 TemperatureHumidityPressure
High63 °F (Feb 3, 6:53 PM)93% (Feb 4, 5:02 AM)30.40 "Hg (Feb 4, 5:02 AM)
Low16 °F (Jan 22, 7:53 AM)29% (Jan 24, 2:53 PM)29.46 "Hg (Jan 29, 8:53 AM)
Average36 °F58%29.98 "Hg
* Reported Jan 22 7:53 AM — Feb 6 7:53 AM, Woodstock, Weather by CustomWeather, © 2016

Note: Actual official high and low records may vary slightly from our data, if they occured in-between our weather recording intervals... More about our weather records

Advertising

Woodstock Weather History for the Previous 24 Hours

 ConditionsComfort  
Time TempWeatherWind HumidityBarometerVisibility
7:53 AM
Sat, Feb 6
27 °FSunny.No wind72%30.40 "Hg10 mi
6:53 AM20 °FClear.No wind78%30.37 "Hg10 mi
5:53 AM20 °FClear.No wind82%30.36 "Hg10 mi
4:53 AM21 °FClear.No wind78%30.35 "Hg10 mi
3:53 AM22 °FClear.No wind78%30.33 "Hg10 mi
2:53 AM23 °FClear.No wind72%30.34 "Hg10 mi
1:53 AM23 °FClear.3 mph74%30.33 "Hg10 mi
12:53 AM25 °FClear.No wind66%30.31 "Hg10 mi
11:53 PM
Fri, Feb 5
25 °FClear.5 mph66%30.31 "Hg10 mi
10:53 PM32 °FClear.3 mph43%30.30 "Hg10 mi
9:53 PM32 °FClear.5 mph41%30.29 "Hg10 mi
8:53 PM32 °FClear.6 mph40%30.28 "Hg10 mi
7:53 PM35 °FClear.10 mph34%30.26 "Hg10 mi
6:53 PM37 °FClear.12 mph30%30.23 "Hg10 mi
5:53 PM38 °FClear.10 mph29%30.19 "Hg10 mi
4:53 PM39 °FSunny.10 mph29%30.15 "Hg10 mi
3:53 PM40 °FSunny.13 mph32%30.11 "Hg10 mi
2:53 PM42 °FSunny.20 mph29%30.08 "Hg10 mi
1:53 PM42 °FScattered clouds.14 mph32%30.06 "Hg10 mi
12:53 PM40 °FPartly sunny.12 mph35%30.05 "Hg10 mi
11:53 AM38 °FOvercast.15 mph48%30.08 "Hg10 mi
10:53 AM36 °FMostly cloudy.7 mph62%30.09 "Hg10 mi
9:53 AM35 °FOvercast.8 mph67%30.11 "Hg10 mi
9:00 AM33 °FLight snow. Overcast.8 mph75%30.09 "Hg6 mi
Weather by CustomWeather, © 2016

See weather overviewHow to use our weather pages